Temp
86 88 88 88 87 89 89 89 86 87 87 86 86 87 85 85 84 83 82 83 80 79
86 86 87 87 87 90 91 89 87 87 88 88 86 86 85 84 83 82 82 81 81 79
87 86 87 88 86 87 90 91 87 87 87 87 86 85 85 84 84 82 82 83 80 80
87 87 87 87 88 88 90 88 87 86 86 86 86 85 84 84 82 82 82 82 80 79
88 87 88 87 88 87 86 88 86 86 86 86 86 85 84 83 84 81 81 80 80 79
89 89 90 88 89 88 86 86 88 86 84 84 86 85 84 83 82 81 81 80 77 77
89 89 91 90 88 89 86 86 86 86 85 85 86 86 84 82 81 79 79 78 79 79
88 89 88 87 87 88 87 86 86 85 85 85 86 88 84 82 80 77 73 75 76 77
87 88 87 86 87 87 86 86 85 84 84 85 87 78 76 77 78 74 72 74 75 74
90 88 87 88 87 85 86 85 85 84 85 84 84 69 70 72 76 70 73 74 74 75
74 76 81 83 85 85 85 84 84 84 85 84 74 67 68 72 70 70 72 73 74 73
72 70 69 67 70 80 83 84 84 84 83 75 71 65 66 69 71 71 72 73 75 74
74 70 68 67 67 72 79 80 80 74 74 71 74 63 64 69 72 71 73 73 74 70
71 70 70 70 67 67 75 72 74 72 76 74 73 66 63 64 74 76 74 73 73 75
MSLP
1014.42 1014.55 1014.75 1014.85 1014.75 1014.62 1014.41 1014.58 1015.39 1015.72 1015.88 1016.10 1016.40 1016.56 1016.78 1017.15 1017.27 1017.49 1017.67 1017.72 1017.77 1017.57
1013.98 1014.29 1014.38 1014.47 1014.63 1014.68 1014.40 1014.83 1015.10 1015.30 1015.74 1015.80 1016.13 1016.37 1016.71 1016.98 1017.16 1017.59 1017.75 1017.81 1017.82 1017.76
1013.36 1013.79 1013.96 1014.12 1014.25 1014.29 1014.19 1014.34 1014.93 1015.15 1015.55 1015.78 1015.89 1016.18 1016.58 1016.96 1017.05 1017.44 1017.61 1017.66 1017.98 1018.24
1012.76 1013.25 1013.62 1013.77 1013.78 1013.91 1014.00 1014.13 1014.45 1014.86 1015.19 1015.39 1015.53 1015.90 1016.33 1016.55 1016.75 1017.21 1017.58 1017.75 1018.00 1018.26
1011.96 1012.46 1012.85 1013.15 1013.30 1013.54 1013.78 1013.91 1014.06 1014.25 1014.56 1014.88 1015.22 1015.48 1015.78 1016.24 1016.42 1016.77 1016.77 1016.97 1017.43 1017.62
1011.12 1011.64 1011.83 1012.04 1012.36 1012.69 1013.08 1013.42 1013.56 1013.75 1013.93 1014.28 1014.69 1014.93 1015.49 1015.81 1016.14 1016.27 1016.18 1016.31 1016.74 1017.14
1010.38 1010.65 1010.92 1011.08 1011.40 1011.69 1012.10 1012.53 1012.85 1013.07 1013.39 1013.73 1014.06 1014.36 1014.84 1015.40 1015.83 1016.07 1016.31 1016.48 1016.90 1017.20
1009.85 1010.11 1010.34 1010.54 1010.70 1010.94 1011.36 1011.79 1012.20 1012.58 1012.75 1013.15 1013.56 1013.84 1014.15 1014.73 1015.32 1015.51 1015.57 1015.89 1016.19 1016.69
1009.43 1009.75 1010.11 1010.40 1010.59 1010.78 1010.92 1011.05 1011.39 1011.72 1012.02 1012.31 1012.94 1013.38 1013.73 1014.63 1014.74 1015.23 1016.43 1016.86 1016.70 1016.56
1009.61 1009.69 1010.00 1010.21 1010.37 1010.56 1010.54 1010.63 1010.62 1010.99 1011.69 1012.22 1012.52 1013.24 1013.73 1013.87 1014.65 1014.80 1016.17 1016.93 1016.94 1016.68
1010.75 1010.71 1010.59 1010.69 1010.53 1010.20 1010.14 1010.27 1010.62 1010.77 1010.78 1011.45 1012.60 1012.90 1012.64 1013.22 1014.68 1015.58 1016.17 1016.22 1016.59 1016.63
1010.66 1010.96 1011.33 1011.42 1011.84 1011.49 1010.21 1010.13 1010.10 1010.63 1011.53 1012.01 1011.97 1012.64 1013.61 1014.44 1014.57 1015.64 1016.12 1016.26 1016.36 1016.64
1009.70 1010.23 1009.90 1009.94 1010.76 1012.19 1011.40 1010.02 1010.52 1011.38 1011.31 1011.55 1012.24 1013.04 1013.67 1014.23 1014.62 1015.30 1015.52 1016.11 1016.27 1016.66
1009.66 1009.73 1009.40 1007.86 1008.89 1011.92 1011.58 1011.22 1012.39 1011.33 1012.08 1011.44 1012.96 1013.28 1013.36 1014.07 1014.35 1014.62 1015.42 1015.83 1015.89 1016.49
Wind_Speed
9 5 5 5 4 4 4 7 10 6 7 6 5 2 4 3 3 5 3 0 3 4
10 9 8 6 7 5 2 8 10 8 4 5 7 5 5 3 4 4 2 4 2 3
11 11 8 7 9 7 5 3 7 7 7 5 7 7 5 4 5 4 2 1 4 2
12 12 10 8 7 7 5 7 7 8 8 8 7 7 6 5 6 5 3 3 5 3
12 12 13 12 10 9 9 7 9 8 9 9 8 9 9 7 6 7 7 6 4 5
13 14 14 14 14 12 11 11 10 11 12 10 10 9 9 9 6 7 8 8 6 5
13 15 15 13 14 14 13 13 13 12 12 12 12 10 10 9 7 6 4 4 4 5
10 11 12 10 11 13 12 13 13 12 11 12 12 10 10 10 9 8 7 5 6 6
9 7 8 9 7 8 10 11 13 14 14 13 10 11 13 13 11 6 4 5 4 8
4 5 5 6 7 9 9 10 10 12 10 11 10 11 16 13 6 6 5 7 6 7
15 14 11 8 9 9 9 9 8 9 9 9 6 11 20 18 10 6 4 5 6 8
5 6 7 10 18 20 10 10 11 9 8 8 11 12 12 10 9 5 5 6 6 8
4 5 5 3 13 24 21 11 5 7 11 8 5 12 15 10 6 4 3 5 7 9
1 3 6 8 11 24 23 10 11 11 4 7 9 13 15 7 4 3 3 4 4 6
Wind_Direction
210 215 214 203 262 234 230 129 158 182 168 167 163 213 149 228 242 130 197 45 6 324
192 211 194 219 219 244 257 143 157 161 196 169 157 184 184 214 153 143 236 185 179 272
194 201 224 208 191 223 221 216 150 159 171 218 172 174 197 170 162 164 207 190 114 347
193 198 210 225 207 222 233 185 173 172 183 201 197 177 188 238 138 161 202 117 141 179
186 195 199 210 215 202 222 228 185 191 196 201 206 195 189 193 185 171 193 190 161 182
193 197 207 203 209 206 204 215 219 198 204 206 209 205 188 189 195 188 204 189 175 185
196 205 208 214 202 210 202 205 216 214 209 207 208 212 188 183 195 200 207 130 202 164
209 210 219 214 215 209 202 207 209 215 213 207 210 212 192 174 179 199 166 153 158 139
199 217 217 227 240 216 216 205 203 209 214 214 207 204 172 152 186 162 141 185 176 117
231 214 234 261 233 238 228 222 221 213 215 216 217 154 154 166 168 133 141 214 198 173
37 19 358 296 253 253 239 243 234 226 205 213 112 175 176 152 108 111 183 230 178 199
63 59 37 18 355 296 242 238 232 227 218 153 178 169 143 126 104 121 194 216 198 195
115 109 123 17 3 334 277 242 230 140 172 197 158 160 139 133 121 160 151 207 219 200
104 354 316 32 41 342 301 324 328 321 249 146 209 158 154 149 117 110 172 180 184 187